TimeCST,TemperatureF,Dew PointF,Humidity,Sea Level PressureIn,VisibilityMPH,Wind Direction,Wind SpeedMPH,Gust SpeedMPH,PrecipitationIn,Events,Conditions,WindDirDegrees,DateUTC
12:53 AM,55.9,46.9,72,29.86,10.0,SSW,11.5,-,N/A,,Scattered Clouds,210,2013-03-05 06:53:00
1:53 AM,55.9,48.0,75,29.87,10.0,SSW,10.4,-,N/A,,Overcast,210,2013-03-05 07:53:00
2:53 AM,57.9,50.0,75,29.86,10.0,SSW,17.3,24.2,N/A,,Overcast,210,2013-03-05 08:53:00
3:53 AM,57.0,48.9,74,29.86,10.0,SSW,12.7,-,N/A,,Overcast,210,2013-03-05 09:53:00
4:03 AM,57.2,48.2,72,29.86,10.0,SSW,12.7,-,N/A,,Overcast,200,2013-03-05 10:03:00
4:20 AM,57.2,48.2,72,29.86,10.0,SSW,11.5,-,N/A,,Overcast,210,2013-03-05 10:20:00
4:53 AM,57.0,50.0,77,29.86,10.0,SSW,13.8,19.6,N/A,,Overcast,200,2013-03-05 10:53:00
5:53 AM,57.0,51.1,81,29.86,10.0,SSW,15.0,-,N/A,,Overcast,210,2013-03-05 11:53:00
6:53 AM,57.0,51.1,81,29.83,10.0,SSW,12.7,-,N/A,,Overcast,210,2013-03-05 12:53:00
7:13 AM,57.2,51.8,82,29.82,10.0,SSW,15.0,23.0,N/A,Thunderstorm,Thunderstorm,210,2013-03-05 13:13:00
7:51 AM,55.4,53.6,94,29.83,10.0,SSW,17.3,-,N/A,,Overcast,210,2013-03-05 13:51:00
7:53 AM,57.0,53.1,87,29.82,10.0,SSW,13.8,-,N/A,,Overcast,200,2013-03-05 13:53:00
8:16 AM,55.4,53.6,94,29.83,8.0,SW,11.5,-,N/A,Rain-Thunderstorm,Light Thunderstorms and Rain,220,2013-03-05 14:16:00
8:38 AM,57.2,53.6,88,29.83,8.0,SW,9.2,21.9,0.01,Rain-Thunderstorm,Light Thunderstorms and Rain,230,2013-03-05 14:38:00
8:53 AM,57.0,54.0,89,29.82,10.0,SW,8.1,-,0.03,,Overcast,230,2013-03-05 14:53:00
9:53 AM,57.0,55.0,93,29.80,2.5,SSW,4.6,-,0.02,Rain,Rain,210,2013-03-05 15:53:00
10:03 AM,57.2,55.4,94,29.80,2.5,SW,4.6,-,0.03,Rain,Light Rain,230,2013-03-05 16:03:00
10:17 AM,57.2,55.4,94,29.79,4.0,Calm,Calm,-,0.06,Rain,Light Rain,0,2013-03-05 16:17:00
10:31 AM,55.4,53.6,94,29.82,3.0,NW,11.5,28.8,0.07,Rain-Thunderstorm,Light Thunderstorms and Rain,320,2013-03-05 16:31:00
10:45 AM,51.8,48.2,88,29.82,10.0,North,17.3,27.6,0.08,Rain-Thunderstorm,Light Thunderstorms and Rain,350,2013-03-05 16:45:00
10:53 AM,50.0,48.0,93,29.86,8.0,NNW,17.3,36.8,0.08,Rain-Thunderstorm,Light Thunderstorms and Rain,330,2013-03-05 16:53:00
11:10 AM,48.2,46.4,93,29.89,5.0,NW,12.7,27.6,0.04,Rain-Thunderstorm,Thunderstorms and Rain,320,2013-03-05 17:10:00
11:12 AM,48.2,46.4,93,29.90,5.0,NW,12.7,27.6,0.04,Rain,Light Rain,320,2013-03-05 17:12:00
11:53 AM,46.0,33.1,61,29.92,10.0,NW,15.0,23.0,0.05,,Overcast,320,2013-03-05 17:53:00
12:31 PM,44.6,33.8,66,29.96,10.0,NNW,17.3,28.8,0.00,,Overcast,330,2013-03-05 18:31:00
12:53 PM,44.1,33.8,67,29.98,10.0,NNW,16.1,24.2,0.00,,Overcast,340,2013-03-05 18:53:00
1:53 PM,44.1,34.0,68,30.00,10.0,NNW,13.8,27.6,N/A,,Overcast,340,2013-03-05 19:53:00
2:49 PM,44.6,32.0,61,30.03,10.0,NNW,9.2,26.5,N/A,,Overcast,340,2013-03-05 20:49:00
2:53 PM,45.0,31.1,58,30.03,10.0,North,11.5,18.4,N/A,,Overcast,350,2013-03-05 20:53:00
3:53 PM,46.9,32.0,56,30.04,10.0,NW,8.1,21.9,N/A,,Scattered Clouds,320,2013-03-05 21:53:00
4:53 PM,48.0,32.0,54,30.06,10.0,NNW,10.4,17.3,N/A,,Partly Cloudy,340,2013-03-05 22:53:00
5:53 PM,48.0,32.0,54,30.06,10.0,NNW,6.9,-,N/A,,Clear,330,2013-03-05 23:53:00
6:53 PM,44.1,30.0,58,30.08,10.0,NW,4.6,-,N/A,,Clear,320,2013-03-06 00:53:00
7:53 PM,43.0,28.0,56,30.11,10.0,NNW,5.8,-,N/A,,Clear,340,2013-03-06 01:53:00
8:53 PM,42.1,23.0,47,30.11,10.0,NW,4.6,-,N/A,,Clear,320,2013-03-06 02:53:00
9:53 PM,42.1,21.9,45,30.13,10.0,NNW,6.9,-,N/A,,Clear,330,2013-03-06 03:53:00
10:53 PM,41.0,23.0,49,30.15,10.0,NNW,8.1,-,N/A,,Clear,340,2013-03-06 04:53:00
11:53 PM,39.9,21.9,49,30.17,10.0,North,11.5,-,N/A,,Clear,350,2013-03-06 05:53:00